Location: ????????
(56.1167°N, 38.6333°E)
Time: 21:48:29
(UTC+00:00)

Cosmos 2278 Rocket - Pass Details

Date: 18 November 2025
Orbit: 841 x 843 km, 71.0° (Epoch: 06 December)

Event Time Altitude Azimuth Distance (km) Brightness Sun altitude
Rises 14:13:11 0° 171° (S) 3,388 5.5 -8.3°
Reaches altitude 10° 14:15:58 10° 159° (SSE) 2,457 4.6 -8.7°
Maximum altitude 14:20:31 26° 105° (ESE) 1,612 3.2 -9.3°
Enters shadow 14:24:51 11° 52° (NE) 2,399 4.0 -9.8°
